Voltar ao catálogo

THORAD AGENA D DEB

AtivoSSO
NORAD 4688·DEBRIS·🇺🇸 United States

Lançado Apr 8, 1970 de Vandenberg Space Force Base

Loading…

Próximas Passagens (próximas 24 horas)

TLE

AtualizadoSource: Space-Track

Época: Sep 14, 2026, 05:45 UTC

1 04688U 70025BM  26257.24017145  .00000052  00000-0  14571-3 0  9994
2 04688 100.0521   1.6386 0021842  54.6125 335.1225 13.53769790779780

Acompanhe THORAD AGENA D DEB em tempo real com AllMySat

Download on the App Store